AirNav   Everest Fuels
 
 1283 users online  

PN44 Merck/Upper Gwynedd Heliport
North Wales, Pennsylvania, USA

GOING TO NORTH WALES?


FAA INFORMATION EFFECTIVE 17 JUNE 2021

Location

FAA Identifier: PN44
Lat/Long: 40-12-57.1200N 075-16-49.1900W
40-12.952000N 075-16.819833W
40.2158667,-75.2803306
(estimated)
Elevation: 355 ft. / 108 m
Variation: 12W (2000)
Time zone: UTC -4 (UTC -5 during Standard Time)
Zip code: 19454

Heliport Operations

Heliport use: Private use. Permission required prior to landing
Activation date: 06/2001
Control tower: no
ARTCC: NEW YORK CENTER
FSS: WILLIAMSPORT FLIGHT SERVICE STATION
NOTAMs facility: FDC (NOTAM-D service not available)
Attendance: UNATNDD
Wind indicator: lighted
Segmented circle: no
Lights: SS-SR

Heliport Communications

WX AWOS-3 at LOM (5 nm S): 118.925 (215-646-1068)
WX ASOS at DYL (10 nm NE): 118.875 (215-345-0392)
WX AWOS-3 at CKZ (10 nm N): 126.325 (215-257-7291)
WX ASOS at PTW (13 nm W): 119.425 (610-495-0823)
WX AWOS-3 at UKT (14 nm N): 119.475 (215-538-7610)
WX ASOS at PNE (15 nm SE): 121.15 (215-677-0146)
WX AWOS-3T at OQN (19 nm SW): 121.4 ((610) 692-6190)

Nearby radio navigation aids

VOR radial/distance  VOR name  Freq  Var
PTWr101/12.8POTTSTOWN VORTAC116.5009W
ARDr272/17.2YARDLEY VOR/DME108.2010W
MXEr054/25.3MODENA VORTAC113.2009W
ETXr149/28.6EAST TEXAS VOR/DME110.2009W
FJCr175/31.7ALLENTOWN VORTAC117.5010W
SBJr238/33.0SOLBERG VOR/DME112.9010W
GXUr304/33.7MC GUIRE VORTAC110.6012W
OODr012/34.8WOODSTOWN VORTAC112.8010W
DQOr035/35.6DUPONT VORTAC114.0010W
RBVr281/36.0ROBBINSVILLE VORTAC113.8010W

 
NDB name  Hdg/Dist  Freq  Var  ID
AMBLER014/5.427512WING .. -. --.

Heliport Services

Runway Information

Helipad H1

Dimensions: 80 x 80 ft. / 24 x 24 m
Surface: asphalt
Runway edge lights: PERI
Latitude: 40-12.952000N
Longitude: 075-16.819833W
Elevation: 355.0 ft.
Traffic pattern: leftleft

Heliport Ownership and Management from official FAA records

Ownership: Privately-owned
Owner: MERCK SHARP & DOHME CORP.
100 SAM WEINROTH RD
WEST TRENTON, NJ 08628
Phone 609-771-8790
Manager: FRANK EMANUELE
100 SAM WEINROTH RD
WEST TRENTON, NJ 08628
Phone (609) 771-8790

Additional Remarks

PPR FOR USE; CALL 609-771-8790 OPTION 1.
NOISE SENSITIVE AREA.
APP HDGS 180/020, DEP HDGS 360/200
FOR CD CTC PHILADELPHIA APCH AT 800-354-9884.

Instrument Procedures

There are no published instrument procedures at PN44.

Some nearby airports with instrument procedures:

KLOM - Wings Field Airport (5 nm S)
N10 - Perkiomen Valley Airport (7 nm W)
KDYL - Doylestown Airport (10 nm NE)
KCKZ - Pennridge Airport (10 nm N)
KPTW - Heritage Field Airport (13 nm W)
KUKT - Quakertown Airport (14 nm N)
KPNE - Northeast Philadelphia Airport (15 nm SE)
N47 - Pottstown Municipal Airport (18 nm W)
KOQN - Brandywine Regional Airport (19 nm SW)
 
Loc | Ops | Rwys | IFR | FBO | Links
Com | Nav | Svcs | Stats | Notes
Area around PN44 (Merck/Upper Gwynedd Heliport)
 
Road maps at: MapQuest Bing Google
 
Aerial photo
No photo
 
Sectional chart

 
Airport distance calculator
Flying to Merck/Upper Gwynedd Heliport? Find the distance to fly.

From to PN44

Sunrise and sunset
Times for 17-Jun-2021
 Local
(UTC-4)
 Zulu
(UTC)
Morning civil twilight04:5908:59
Sunrise05:3209:32
Sunset20:3200:32
Evening civil twilight21:0501:05

Current date and time
Zulu (UTC)  18-Jun-2021 00:12:04
Local (UTC-4)  17-Jun-2021 20:12:04
 
METAR
KLOM 
5nm S 
172355Z AUTO 28003KT 10SM CLR 22/08 A3001 RMK AO2 T02190078 10251 20211 402510094
KDYL 
10nm NE 
172354Z AUTO 25003KT 10SM CLR 23/06 A2999 RMK AO2 SLP153 T02280061 10261 20228 53006
KCKZ 
10nm N 
172355Z AUTO 26003KT 10SM CLR 20/07 A3002 RMK AO2
KPTW 
12nm W 
172354Z AUTO 31003KT CLR 21/06 A3002 RMK AO2 SLP162 T02110056 10239 20211 53005 $
KUKT 
14nm N 
172355Z AUTO 00000KT 10SM CLR 22/08 A3001 RMK A01
KPNE 
14nm SE 
172354Z 29006KT 10SM CLR 23/04 A3001 RMK AO2 SLP160 T02280044 10256 20228 53005
KOQN 
19nm SW 
172355Z AUTO 00000KT 10SM CLR 23/03 A3002 RMK AO2
TAF
KPNE 
14nm SE 
171724Z 1718/1818 32010KT P6SM SKC FM172300 VRB04KT P6SM SKC FM181500 23007KT P6SM FEW200
NOTAMs
Click for the latest NOTAMs
NOTAMs are issued by the DoD/FAA and will open in a separate window not controlled by AirNav.

 

 
 

Would you like to see your business listed on this page?

 If your business provides an interesting product or service to pilots, flight crews, aircraft, or users of the Merck/Upper Gwynedd Heliport, you should consider listing it here.  To start the listing process, click on the button below
 
Add a business
 

Other Pages about Merck/Upper Gwynedd Heliport

Update a link
 
Copyright © AirNav, LLC. All rights reserved. Privacy Policy  Contact